owner,sensor,date,latitude,longitude,relative_humidity,qcFlag 
COMPS,ioos:station:USF.COMPS:ARP:1,2017-10-01T00:00:00Z,28.4330,-82.6670,90.67,1111122 
COMPS,ioos:station:USF.COMPS:ARP:1,2017-10-01T00:06:00Z,28.4330,-82.6670,90.1,1111122 
COMPS,ioos:station:USF.COMPS:ARP:1,2017-10-01T00:12:00Z,28.4330,-82.6670,90.0,1111122 
COMPS,ioos:station:USF.COMPS:ARP:1,2017-10-01T00:18:00Z,28.4330,-82.6670,89.78,1111122 
COMPS,ioos:station:USF.COMPS:ARP:1,2017-10-01T00:24:00Z,28.4330,-82.6670,89.71,1111122 
COMPS,ioos:station:USF.COMPS:ARP:1,2017-10-01T00:30:00Z,28.4330,-82.6670,89.72,1111122 
COMPS,ioos:station:USF.COMPS:ARP:1,2017-10-01T00:36:00Z,28.4330,-82.6670,90.03,1111122 
COMPS,ioos:station:USF.COMPS:ARP:1,2017-10-01T00:42:00Z,28.4330,-82.6670,90.36,1111122 
COMPS,ioos:station:USF.COMPS:ARP:1,2017-10-01T00:48:00Z,28.4330,-82.6670,90.59,1111122 
COMPS,ioos:station:USF.COMPS:ARP:1,2017-10-01T00:54:00Z,28.4330,-82.6670,91.2,1111122 
COMPS,ioos:station:USF.COMPS:ARP:1,2017-10-01T01:00:00Z,28.4330,-82.6670,91.78,1111122 
COMPS,ioos:station:USF.COMPS:ARP:1,2017-10-01T01:06:00Z,28.4330,-82.6670,92.13,1111122 
COMPS,ioos:station:USF.COMPS:ARP:1,2017-10-01T01:12:00Z,28.4330,-82.6670,92.38,1111122 
COMPS,ioos:station:USF.COMPS:ARP:1,2017-10-01T01:18:00Z,28.4330,-82.6670,92.23,1111122 
COMPS,ioos:station:USF.COMPS:ARP:1,2017-10-01T01:24:00Z,28.4330,-82.6670,92.05,1111122 
COMPS,ioos:station:USF.COMPS:ARP:1,2017-10-01T01:30:00Z,28.4330,-82.6670,91.61,1111122 
COMPS,ioos:station:USF.COMPS:ARP:1,2017-10-01T01:36:00Z,28.4330,-82.6670,91.76,1111122 
COMPS,ioos:station:USF.COMPS:ARP:1,2017-10-01T01:42:00Z,28.4330,-82.6670,91.79,1111122 
COMPS,ioos:station:USF.COMPS:ARP:1,2017-10-01T01:48:00Z,28.4330,-82.6670,91.65,1111122 
COMPS,ioos:station:USF.COMPS:ARP:1,2017-10-01T01:54:00Z,28.4330,-82.6670,91.49,1111122 
COMPS,ioos:station:USF.COMPS:ARP:1,2017-10-01T02:00:00Z,28.4330,-82.6670,91.27,1111122 
COMPS,ioos:station:USF.COMPS:ARP:1,2017-10-01T02:06:00Z,28.4330,-82.6670,91.17,1111122 
COMPS,ioos:station:USF.COMPS:ARP:1,2017-10-01T02:12:00Z,28.4330,-82.6670,90.87,1111122 
COMPS,ioos:station:USF.COMPS:ARP:1,2017-10-01T02:18:00Z,28.4330,-82.6670,90.72,1111122 
COMPS,ioos:station:USF.COMPS:ARP:1,2017-10-01T02:24:00Z,28.4330,-82.6670,90.92,1111122 
COMPS,ioos:station:USF.COMPS:ARP:1,2017-10-01T02:30:00Z,28.4330,-82.6670,90.66,1111122 
COMPS,ioos:station:USF.COMPS:ARP:1,2017-10-01T02:36:00Z,28.4330,-82.6670,90.73,1111122 
COMPS,ioos:station:USF.COMPS:ARP:1,2017-10-01T02:42:00Z,28.4330,-82.6670,90.61,1111122 
COMPS,ioos:station:USF.COMPS:ARP:1,2017-10-01T02:48:00Z,28.4330,-82.6670,89.85,1111122 
COMPS,ioos:station:USF.COMPS:ARP:1,2017-10-01T02:54:00Z,28.4330,-82.6670,89.28,1111122 
COMPS,ioos:station:USF.COMPS:ARP:1,2017-10-01T03:00:00Z,28.4330,-82.6670,88.95,1111122 
COMPS,ioos:station:USF.COMPS:ARP:1,2017-10-01T03:06:00Z,28.4330,-82.6670,89.25,1111122 
COMPS,ioos:station:USF.COMPS:ARP:1,2017-10-01T03:12:00Z,28.4330,-82.6670,88.87,1111122 
COMPS,ioos:station:USF.COMPS:ARP:1,2017-10-01T03:18:00Z,28.4330,-82.6670,88.55,1111122 
COMPS,ioos:station:USF.COMPS:ARP:1,2017-10-01T03:24:00Z,28.4330,-82.6670,88.37,1111122 
COMPS,ioos:station:USF.COMPS:ARP:1,2017-10-01T03:30:00Z,28.4330,-82.6670,88.56,1111122 
COMPS,ioos:station:USF.COMPS:ARP:1,2017-10-01T03:36:00Z,28.4330,-82.6670,88.82,1111122 
COMPS,ioos:station:USF.COMPS:ARP:1,2017-10-01T03:42:00Z,28.4330,-82.6670,88.36,1111122 
COMPS,ioos:station:USF.COMPS:ARP:1,2017-10-01T03:48:00Z,28.4330,-82.6670,87.82,1111122 
COMPS,ioos:station:USF.COMPS:ARP:1,2017-10-01T03:54:00Z,28.4330,-82.6670,87.17,1111122 
COMPS,ioos:station:USF.COMPS:ARP:1,2017-10-01T04:00:00Z,28.4330,-82.6670,86.13,1111122 
COMPS,ioos:station:USF.COMPS:ARP:1,2017-10-01T04:06:00Z,28.4330,-82.6670,85.92,1111122 
COMPS,ioos:station:USF.COMPS:ARP:1,2017-10-01T04:12:00Z,28.4330,-82.6670,85.78,1111122 
COMPS,ioos:station:USF.COMPS:ARP:1,2017-10-01T04:18:00Z,28.4330,-82.6670,86.02,1111122 
COMPS,ioos:station:USF.COMPS:ARP:1,2017-10-01T04:24:00Z,28.4330,-82.6670,85.95,1111122 
COMPS,ioos:station:USF.COMPS:ARP:1,2017-10-01T04:30:00Z,28.4330,-82.6670,86.43,1111122 
COMPS,ioos:station:USF.COMPS:ARP:1,2017-10-01T04:36:00Z,28.4330,-82.6670,86.96,1111122 
COMPS,ioos:station:USF.COMPS:ARP:1,2017-10-01T04:42:00Z,28.4330,-82.6670,87.54,1111122 
COMPS,ioos:station:USF.COMPS:ARP:1,2017-10-01T04:48:00Z,28.4330,-82.6670,87.63,1111122 
COMPS,ioos:station:USF.COMPS:ARP:1,2017-10-01T04:54:00Z,28.4330,-82.6670,87.55,1111122 
COMPS,ioos:station:USF.COMPS:ARP:1,2017-10-01T05:00:00Z,28.4330,-82.6670,87.71,1111122 
COMPS,ioos:station:USF.COMPS:ARP:1,2017-10-01T05:06:00Z,28.4330,-82.6670,87.63,1111122 
COMPS,ioos:station:USF.COMPS:ARP:1,2017-10-01T05:12:00Z,28.4330,-82.6670,87.8,1111122 
COMPS,ioos:station:USF.COMPS:ARP:1,2017-10-01T05:18:00Z,28.4330,-82.6670,87.6,1111122 
COMPS,ioos:station:USF.COMPS:ARP:1,2017-10-01T05:24:00Z,28.4330,-82.6670,87.57,1111122 
COMPS,ioos:station:USF.COMPS:ARP:1,2017-10-01T05:30:00Z,28.4330,-82.6670,87.81,1111122 
COMPS,ioos:station:USF.COMPS:ARP:1,2017-10-01T05:36:00Z,28.4330,-82.6670,88.04,1111122 
COMPS,ioos:station:USF.COMPS:ARP:1,2017-10-01T05:42:00Z,28.4330,-82.6670,88.13,1111122 
COMPS,ioos:station:USF.COMPS:ARP:1,2017-10-01T05:48:00Z,28.4330,-82.6670,88.41,1111122 
COMPS,ioos:station:USF.COMPS:ARP:1,2017-10-01T05:54:00Z,28.4330,-82.6670,88.61,1111122 
COMPS,ioos:station:USF.COMPS:ARP:1,2017-10-01T06:00:00Z,28.4330,-82.6670,88.79,1111122 
COMPS,ioos:station:USF.COMPS:ARP:1,2017-10-01T06:06:00Z,28.4330,-82.6670,89.09,1111122 
COMPS,ioos:station:USF.COMPS:ARP:1,2017-10-01T06:12:00Z,28.4330,-82.6670,89.15,1111122 
COMPS,ioos:station:USF.COMPS:ARP:1,2017-10-01T06:18:00Z,28.4330,-82.6670,89.52,1111122 
COMPS,ioos:station:USF.COMPS:ARP:1,2017-10-01T06:24:00Z,28.4330,-82.6670,89.66,1111122 
COMPS,ioos:station:USF.COMPS:ARP:1,2017-10-01T06:30:00Z,28.4330,-82.6670,90.05,1111122 
COMPS,ioos:station:USF.COMPS:ARP:1,2017-10-01T06:36:00Z,28.4330,-82.6670,90.25,1111122 
COMPS,ioos:station:USF.COMPS:ARP:1,2017-10-01T06:42:00Z,28.4330,-82.6670,90.41,1111122 
COMPS,ioos:station:USF.COMPS:ARP:1,2017-10-01T06:48:00Z,28.4330,-82.6670,90.71,1111122 
COMPS,ioos:station:USF.COMPS:ARP:1,2017-10-01T06:54:00Z,28.4330,-82.6670,90.9,1111122 
COMPS,ioos:station:USF.COMPS:ARP:1,2017-10-01T07:00:00Z,28.4330,-82.6670,91.19,1111122 
COMPS,ioos:station:USF.COMPS:ARP:1,2017-10-01T07:06:00Z,28.4330,-82.6670,91.5,1111122 
COMPS,ioos:station:USF.COMPS:ARP:1,2017-10-01T07:12:00Z,28.4330,-82.6670,91.77,1111122 
COMPS,ioos:station:USF.COMPS:ARP:1,2017-10-01T07:18:00Z,28.4330,-82.6670,91.97,1111122 
COMPS,ioos:station:USF.COMPS:ARP:1,2017-10-01T07:24:00Z,28.4330,-82.6670,92.24,1111122 
COMPS,ioos:station:USF.COMPS:ARP:1,2017-10-01T07:30:00Z,28.4330,-82.6670,92.42,1111122 
COMPS,ioos:station:USF.COMPS:ARP:1,2017-10-01T07:36:00Z,28.4330,-82.6670,92.65,1111122 
COMPS,ioos:station:USF.COMPS:ARP:1,2017-10-01T07:42:00Z,28.4330,-82.6670,92.67,1111122 
COMPS,ioos:station:USF.COMPS:ARP:1,2017-10-01T07:48:00Z,28.4330,-82.6670,92.73,1111122 
COMPS,ioos:station:USF.COMPS:ARP:1,2017-10-01T07:54:00Z,28.4330,-82.6670,92.68,1111122 
COMPS,ioos:station:USF.COMPS:ARP:1,2017-10-01T08:00:00Z,28.4330,-82.6670,92.65,1111122 
COMPS,ioos:station:USF.COMPS:ARP:1,2017-10-01T08:06:00Z,28.4330,-82.6670,92.83,1111122 
COMPS,ioos:station:USF.COMPS:ARP:1,2017-10-01T08:12:00Z,28.4330,-82.6670,92.97,1111122 
COMPS,ioos:station:USF.COMPS:ARP:1,2017-10-01T08:18:00Z,28.4330,-82.6670,93.03,1111122 
COMPS,ioos:station:USF.COMPS:ARP:1,2017-10-01T08:24:00Z,28.4330,-82.6670,93.07,1111122 
COMPS,ioos:station:USF.COMPS:ARP:1,2017-10-01T08:30:00Z,28.4330,-82.6670,93.2,1111122 
COMPS,ioos:station:USF.COMPS:ARP:1,2017-10-01T08:36:00Z,28.4330,-82.6670,93.17,1111122 
COMPS,ioos:station:USF.COMPS:ARP:1,2017-10-01T08:42:00Z,28.4330,-82.6670,93.41,1111122 
COMPS,ioos:station:USF.COMPS:ARP:1,2017-10-01T08:48:00Z,28.4330,-82.6670,93.69,1111122 
COMPS,ioos:station:USF.COMPS:ARP:1,2017-10-01T08:54:00Z,28.4330,-82.6670,93.76,1111122 
COMPS,ioos:station:USF.COMPS:ARP:1,2017-10-01T09:00:00Z,28.4330,-82.6670,93.91,1111122 
COMPS,ioos:station:USF.COMPS:ARP:1,2017-10-01T09:06:00Z,28.4330,-82.6670,93.97,1111122 
COMPS,ioos:station:USF.COMPS:ARP:1,2017-10-01T09:12:00Z,28.4330,-82.6670,94.23,1111122 
COMPS,ioos:station:USF.COMPS:ARP:1,2017-10-01T09:18:00Z,28.4330,-82.6670,94.28,1111122 
COMPS,ioos:station:USF.COMPS:ARP:1,2017-10-01T09:24:00Z,28.4330,-82.6670,94.38,1111122 
COMPS,ioos:station:USF.COMPS:ARP:1,2017-10-01T09:30:00Z,28.4330,-82.6670,94.49,1111122 
COMPS,ioos:station:USF.COMPS:ARP:1,2017-10-01T09:36:00Z,28.4330,-82.6670,94.61,1111122 
COMPS,ioos:station:USF.COMPS:ARP:1,2017-10-01T09:42:00Z,28.4330,-82.6670,94.75,1111122 
COMPS,ioos:station:USF.COMPS:ARP:1,2017-10-01T09:48:00Z,28.4330,-82.6670,94.81,1111122 
COMPS,ioos:station:USF.COMPS:ARP:1,2017-10-01T09:54:00Z,28.4330,-82.6670,94.95,1111122 
COMPS,ioos:station:USF.COMPS:ARP:1,2017-10-01T10:00:00Z,28.4330,-82.6670,95.1,1111122 
COMPS,ioos:station:USF.COMPS:ARP:1,2017-10-01T10:06:00Z,28.4330,-82.6670,95.13,1111122 
COMPS,ioos:station:USF.COMPS:ARP:1,2017-10-01T10:12:00Z,28.4330,-82.6670,95.28,1111122 
COMPS,ioos:station:USF.COMPS:ARP:1,2017-10-01T10:18:00Z,28.4330,-82.6670,95.25,1111122 
COMPS,ioos:station:USF.COMPS:ARP:1,2017-10-01T10:24:00Z,28.4330,-82.6670,95.38,1111122 
COMPS,ioos:station:USF.COMPS:ARP:1,2017-10-01T10:30:00Z,28.4330,-82.6670,95.34,1111122 
COMPS,ioos:station:USF.COMPS:ARP:1,2017-10-01T10:36:00Z,28.4330,-82.6670,95.47,1111122 
COMPS,ioos:station:USF.COMPS:ARP:1,2017-10-01T10:42:00Z,28.4330,-82.6670,95.39,1111122 
COMPS,ioos:station:USF.COMPS:ARP:1,2017-10-01T10:48:00Z,28.4330,-82.6670,95.5,1111122 
COMPS,ioos:station:USF.COMPS:ARP:1,2017-10-01T10:54:00Z,28.4330,-82.6670,95.56,1111122 
COMPS,ioos:station:USF.COMPS:ARP:1,2017-10-01T11:00:00Z,28.4330,-82.6670,95.7,1111122 
COMPS,ioos:station:USF.COMPS:ARP:1,2017-10-01T11:06:00Z,28.4330,-82.6670,95.69,1111122 
COMPS,ioos:station:USF.COMPS:ARP:1,2017-10-01T11:12:00Z,28.4330,-82.6670,95.73,1111122 
COMPS,ioos:station:USF.COMPS:ARP:1,2017-10-01T11:18:00Z,28.4330,-82.6670,95.81,1111122 
COMPS,ioos:station:USF.COMPS:ARP:1,2017-10-01T11:24:00Z,28.4330,-82.6670,95.88,1111122 
COMPS,ioos:station:USF.COMPS:ARP:1,2017-10-01T11:30:00Z,28.4330,-82.6670,95.91,1111122 
COMPS,ioos:station:USF.COMPS:ARP:1,2017-10-01T11:36:00Z,28.4330,-82.6670,95.81,1111122 
COMPS,ioos:station:USF.COMPS:ARP:1,2017-10-01T11:42:00Z,28.4330,-82.6670,95.78,1111122 
COMPS,ioos:station:USF.COMPS:ARP:1,2017-10-01T11:48:00Z,28.4330,-82.6670,95.75,1111122 
COMPS,ioos:station:USF.COMPS:ARP:1,2017-10-01T11:54:00Z,28.4330,-82.6670,95.62,1111122 
COMPS,ioos:station:USF.COMPS:ARP:1,2017-10-01T12:00:00Z,28.4330,-82.6670,95.52,1111122 
COMPS,ioos:station:USF.COMPS:ARP:1,2017-10-01T12:06:00Z,28.4330,-82.6670,95.34,1111122 
COMPS,ioos:station:USF.COMPS:ARP:1,2017-10-01T12:12:00Z,28.4330,-82.6670,94.95,1111122 
COMPS,ioos:station:USF.COMPS:ARP:1,2017-10-01T12:18:00Z,28.4330,-82.6670,94.3,1111122 
COMPS,ioos:station:USF.COMPS:ARP:1,2017-10-01T12:24:00Z,28.4330,-82.6670,93.56,1111122 
COMPS,ioos:station:USF.COMPS:ARP:1,2017-10-01T12:30:00Z,28.4330,-82.6670,92.6,1111122 
COMPS,ioos:station:USF.COMPS:ARP:1,2017-10-01T12:36:00Z,28.4330,-82.6670,91.51,1111122 
COMPS,ioos:station:USF.COMPS:ARP:1,2017-10-01T12:42:00Z,28.4330,-82.6670,90.54,1111122 
COMPS,ioos:station:USF.COMPS:ARP:1,2017-10-01T12:48:00Z,28.4330,-82.6670,89.51,1111122 
COMPS,ioos:station:USF.COMPS:ARP:1,2017-10-01T12:54:00Z,28.4330,-82.6670,88.67,1111122 
COMPS,ioos:station:USF.COMPS:ARP:1,2017-10-01T13:00:00Z,28.4330,-82.6670,87.79,1111122 
COMPS,ioos:station:USF.COMPS:ARP:1,2017-10-01T13:06:00Z,28.4330,-82.6670,86.88,1111122 
COMPS,ioos:station:USF.COMPS:ARP:1,2017-10-01T13:12:00Z,28.4330,-82.6670,85.86,1111122 
COMPS,ioos:station:USF.COMPS:ARP:1,2017-10-01T13:18:00Z,28.4330,-82.6670,85.08,1111122 
COMPS,ioos:station:USF.COMPS:ARP:1,2017-10-01T13:24:00Z,28.4330,-82.6670,84.65,1111122 
COMPS,ioos:station:USF.COMPS:ARP:1,2017-10-01T13:30:00Z,28.4330,-82.6670,83.98,1111122 
COMPS,ioos:station:USF.COMPS:ARP:1,2017-10-01T13:36:00Z,28.4330,-82.6670,83.35,1111122 
COMPS,ioos:station:USF.COMPS:ARP:1,2017-10-01T13:42:00Z,28.4330,-82.6670,82.64,1111122 
COMPS,ioos:station:USF.COMPS:ARP:1,2017-10-01T13:48:00Z,28.4330,-82.6670,81.6,1111122 
COMPS,ioos:station:USF.COMPS:ARP:1,2017-10-01T13:54:00Z,28.4330,-82.6670,80.76,1111122 
COMPS,ioos:station:USF.COMPS:ARP:1,2017-10-01T14:00:00Z,28.4330,-82.6670,80.66,1111122 
COMPS,ioos:station:USF.COMPS:ARP:1,2017-10-01T14:06:00Z,28.4330,-82.6670,80.28,1111122 
COMPS,ioos:station:USF.COMPS:ARP:1,2017-10-01T14:12:00Z,28.4330,-82.6670,79.56,1111122 
COMPS,ioos:station:USF.COMPS:ARP:1,2017-10-01T14:18:00Z,28.4330,-82.6670,78.6,1111122 
COMPS,ioos:station:USF.COMPS:ARP:1,2017-10-01T14:24:00Z,28.4330,-82.6670,77.92,1111122 
COMPS,ioos:station:USF.COMPS:ARP:1,2017-10-01T14:30:00Z,28.4330,-82.6670,76.74,1111122 
COMPS,ioos:station:USF.COMPS:ARP:1,2017-10-01T14:36:00Z,28.4330,-82.6670,76.11,1111122 
COMPS,ioos:station:USF.COMPS:ARP:1,2017-10-01T14:42:00Z,28.4330,-82.6670,75.98,1111122 
COMPS,ioos:station:USF.COMPS:ARP:1,2017-10-01T14:48:00Z,28.4330,-82.6670,76.29,1111122 
COMPS,ioos:station:USF.COMPS:ARP:1,2017-10-01T14:54:00Z,28.4330,-82.6670,75.63,1111122 
COMPS,ioos:station:USF.COMPS:ARP:1,2017-10-01T15:00:00Z,28.4330,-82.6670,75.34,1111122 
COMPS,ioos:station:USF.COMPS:ARP:1,2017-10-01T15:06:00Z,28.4330,-82.6670,75.46,1111122 
COMPS,ioos:station:USF.COMPS:ARP:1,2017-10-01T15:12:00Z,28.4330,-82.6670,75.36,1111122 
COMPS,ioos:station:USF.COMPS:ARP:1,2017-10-01T15:18:00Z,28.4330,-82.6670,74.85,1111122 
COMPS,ioos:station:USF.COMPS:ARP:1,2017-10-01T15:24:00Z,28.4330,-82.6670,73.82,1111122 
COMPS,ioos:station:USF.COMPS:ARP:1,2017-10-01T15:30:00Z,28.4330,-82.6670,73.65,1111122 
COMPS,ioos:station:USF.COMPS:ARP:1,2017-10-01T15:36:00Z,28.4330,-82.6670,73.23,1111122 
COMPS,ioos:station:USF.COMPS:ARP:1,2017-10-01T15:42:00Z,28.4330,-82.6670,71.33,1111122 
COMPS,ioos:station:USF.COMPS:ARP:1,2017-10-01T15:48:00Z,28.4330,-82.6670,70.36,1111122 
COMPS,ioos:station:USF.COMPS:ARP:1,2017-10-01T15:54:00Z,28.4330,-82.6670,68.91,1111122 
COMPS,ioos:station:USF.COMPS:ARP:1,2017-10-01T16:00:00Z,28.4330,-82.6670,67.15,1111122 
COMPS,ioos:station:USF.COMPS:ARP:1,2017-10-01T16:06:00Z,28.4330,-82.6670,66.15,1111122 
COMPS,ioos:station:USF.COMPS:ARP:1,2017-10-01T16:12:00Z,28.4330,-82.6670,65.25,1111122 
COMPS,ioos:station:USF.COMPS:ARP:1,2017-10-01T16:18:00Z,28.4330,-82.6670,64.32,1111122 
COMPS,ioos:station:USF.COMPS:ARP:1,2017-10-01T16:24:00Z,28.4330,-82.6670,65.39,1111122 
COMPS,ioos:station:USF.COMPS:ARP:1,2017-10-01T16:30:00Z,28.4330,-82.6670,64.19,1111122 
COMPS,ioos:station:USF.COMPS:ARP:1,2017-10-01T16:36:00Z,28.4330,-82.6670,62.55,1111122 
COMPS,ioos:station:USF.COMPS:ARP:1,2017-10-01T16:42:00Z,28.4330,-82.6670,60.5,1111122 
COMPS,ioos:station:USF.COMPS:ARP:1,2017-10-01T16:48:00Z,28.4330,-82.6670,60.7,1111122 
COMPS,ioos:station:USF.COMPS:ARP:1,2017-10-01T16:54:00Z,28.4330,-82.6670,58.37,1111122 
COMPS,ioos:station:USF.COMPS:ARP:1,2017-10-01T17:00:00Z,28.4330,-82.6670,58.16,1111122 
COMPS,ioos:station:USF.COMPS:ARP:1,2017-10-01T17:06:00Z,28.4330,-82.6670,57.12,1111122 
COMPS,ioos:station:USF.COMPS:ARP:1,2017-10-01T17:12:00Z,28.4330,-82.6670,56.43,1111122 
COMPS,ioos:station:USF.COMPS:ARP:1,2017-10-01T17:18:00Z,28.4330,-82.6670,56.22,1111122 
COMPS,ioos:station:USF.COMPS:ARP:1,2017-10-01T17:24:00Z,28.4330,-82.6670,55.29,1111122 
COMPS,ioos:station:USF.COMPS:ARP:1,2017-10-01T17:30:00Z,28.4330,-82.6670,54.71,1111122 
COMPS,ioos:station:USF.COMPS:ARP:1,2017-10-01T17:36:00Z,28.4330,-82.6670,53.98,1111122 
COMPS,ioos:station:USF.COMPS:ARP:1,2017-10-01T17:42:00Z,28.4330,-82.6670,52.95,1111122 
COMPS,ioos:station:USF.COMPS:ARP:1,2017-10-01T17:48:00Z,28.4330,-82.6670,54.27,1111122 
COMPS,ioos:station:USF.COMPS:ARP:1,2017-10-01T17:54:00Z,28.4330,-82.6670,53.7,1111122 
COMPS,ioos:station:USF.COMPS:ARP:1,2017-10-01T18:00:00Z,28.4330,-82.6670,54.68,1111122 
COMPS,ioos:station:USF.COMPS:ARP:1,2017-10-01T18:06:00Z,28.4330,-82.6670,56.21,1111122 
COMPS,ioos:station:USF.COMPS:ARP:1,2017-10-01T18:12:00Z,28.4330,-82.6670,56.36,1111122 
COMPS,ioos:station:USF.COMPS:ARP:1,2017-10-01T18:18:00Z,28.4330,-82.6670,57.23,1111122 
COMPS,ioos:station:USF.COMPS:ARP:1,2017-10-01T18:24:00Z,28.4330,-82.6670,55.64,1111122 
COMPS,ioos:station:USF.COMPS:ARP:1,2017-10-01T18:30:00Z,28.4330,-82.6670,56.2,1111122 
COMPS,ioos:station:USF.COMPS:ARP:1,2017-10-01T18:36:00Z,28.4330,-82.6670,55.99,1111122 
COMPS,ioos:station:USF.COMPS:ARP:1,2017-10-01T18:42:00Z,28.4330,-82.6670,57.23,1111122 
COMPS,ioos:station:USF.COMPS:ARP:1,2017-10-01T18:48:00Z,28.4330,-82.6670,56.64,1111122 
COMPS,ioos:station:USF.COMPS:ARP:1,2017-10-01T18:54:00Z,28.4330,-82.6670,56.67,1111122 
COMPS,ioos:station:USF.COMPS:ARP:1,2017-10-01T19:00:00Z,28.4330,-82.6670,57.66,1111122 
COMPS,ioos:station:USF.COMPS:ARP:1,2017-10-01T19:06:00Z,28.4330,-82.6670,54.88,1111122 
COMPS,ioos:station:USF.COMPS:ARP:1,2017-10-01T19:12:00Z,28.4330,-82.6670,54.1,1111122 
COMPS,ioos:station:USF.COMPS:ARP:1,2017-10-01T19:18:00Z,28.4330,-82.6670,52.53,1111122 
COMPS,ioos:station:USF.COMPS:ARP:1,2017-10-01T19:24:00Z,28.4330,-82.6670,51.86,1111122 
COMPS,ioos:station:USF.COMPS:ARP:1,2017-10-01T19:30:00Z,28.4330,-82.6670,51.8,1111122 
COMPS,ioos:station:USF.COMPS:ARP:1,2017-10-01T19:36:00Z,28.4330,-82.6670,51.63,1111122 
COMPS,ioos:station:USF.COMPS:ARP:1,2017-10-01T19:42:00Z,28.4330,-82.6670,52.3,1111122 
COMPS,ioos:station:USF.COMPS:ARP:1,2017-10-01T19:48:00Z,28.4330,-82.6670,51.26,1111122 
COMPS,ioos:station:USF.COMPS:ARP:1,2017-10-01T19:54:00Z,28.4330,-82.6670,50.9,1111122 
COMPS,ioos:station:USF.COMPS:ARP:1,2017-10-01T20:00:00Z,28.4330,-82.6670,52.92,1111122 
COMPS,ioos:station:USF.COMPS:ARP:1,2017-10-01T20:06:00Z,28.4330,-82.6670,54.06,1111122 
COMPS,ioos:station:USF.COMPS:ARP:1,2017-10-01T20:12:00Z,28.4330,-82.6670,52.65,1111122 
COMPS,ioos:station:USF.COMPS:ARP:1,2017-10-01T20:18:00Z,28.4330,-82.6670,52.6,1111122 
COMPS,ioos:station:USF.COMPS:ARP:1,2017-10-01T20:24:00Z,28.4330,-82.6670,53.72,1111122 
COMPS,ioos:station:USF.COMPS:ARP:1,2017-10-01T20:30:00Z,28.4330,-82.6670,55.36,1111122 
COMPS,ioos:station:USF.COMPS:ARP:1,2017-10-01T20:36:00Z,28.4330,-82.6670,55.83,1111122 
COMPS,ioos:station:USF.COMPS:ARP:1,2017-10-01T20:42:00Z,28.4330,-82.6670,55.91,1111122 
COMPS,ioos:station:USF.COMPS:ARP:1,2017-10-01T20:48:00Z,28.4330,-82.6670,58.13,1111122 
COMPS,ioos:station:USF.COMPS:ARP:1,2017-10-01T20:54:00Z,28.4330,-82.6670,60.47,1111122 
COMPS,ioos:station:USF.COMPS:ARP:1,2017-10-01T21:00:00Z,28.4330,-82.6670,60.49,1111122 
COMPS,ioos:station:USF.COMPS:ARP:1,2017-10-01T21:06:00Z,28.4330,-82.6670,67.89,1111122 
COMPS,ioos:station:USF.COMPS:ARP:1,2017-10-01T21:12:00Z,28.4330,-82.6670,72.06,1111122 
COMPS,ioos:station:USF.COMPS:ARP:1,2017-10-01T21:18:00Z,28.4330,-82.6670,73.7,1111122 
COMPS,ioos:station:USF.COMPS:ARP:1,2017-10-01T21:24:00Z,28.4330,-82.6670,73.86,1111122 
COMPS,ioos:station:USF.COMPS:ARP:1,2017-10-01T21:30:00Z,28.4330,-82.6670,73.88,1111122 
COMPS,ioos:station:USF.COMPS:ARP:1,2017-10-01T21:36:00Z,28.4330,-82.6670,74.41,1111122 
COMPS,ioos:station:USF.COMPS:ARP:1,2017-10-01T21:42:00Z,28.4330,-82.6670,74.72,1111122 
COMPS,ioos:station:USF.COMPS:ARP:1,2017-10-01T21:48:00Z,28.4330,-82.6670,75.01,1111122 
COMPS,ioos:station:USF.COMPS:ARP:1,2017-10-01T21:54:00Z,28.4330,-82.6670,78.16,1111122 
COMPS,ioos:station:USF.COMPS:ARP:1,2017-10-01T22:00:00Z,28.4330,-82.6670,82.8,1111122 
COMPS,ioos:station:USF.COMPS:ARP:1,2017-10-01T22:06:00Z,28.4330,-82.6670,83.89,1111122 
COMPS,ioos:station:USF.COMPS:ARP:1,2017-10-01T22:12:00Z,28.4330,-82.6670,85.01,1111122 
COMPS,ioos:station:USF.COMPS:ARP:1,2017-10-01T22:18:00Z,28.4330,-82.6670,87.23,1111122 
COMPS,ioos:station:USF.COMPS:ARP:1,2017-10-01T22:24:00Z,28.4330,-82.6670,88.85,1111122 
COMPS,ioos:station:USF.COMPS:ARP:1,2017-10-01T22:30:00Z,28.4330,-82.6670,89.36,1111122 
COMPS,ioos:station:USF.COMPS:ARP:1,2017-10-01T22:36:00Z,28.4330,-82.6670,89.35,1111122 
COMPS,ioos:station:USF.COMPS:ARP:1,2017-10-01T22:42:00Z,28.4330,-82.6670,88.68,1111122 
COMPS,ioos:station:USF.COMPS:ARP:1,2017-10-01T22:48:00Z,28.4330,-82.6670,89.31,1111122 
COMPS,ioos:station:USF.COMPS:ARP:1,2017-10-01T22:54:00Z,28.4330,-82.6670,89.82,1111122 
COMPS,ioos:station:USF.COMPS:ARP:1,2017-10-01T23:00:00Z,28.4330,-82.6670,90.05,1111122 
COMPS,ioos:station:USF.COMPS:ARP:1,2017-10-01T23:06:00Z,28.4330,-82.6670,90.39,1111122 
COMPS,ioos:station:USF.COMPS:ARP:1,2017-10-01T23:12:00Z,28.4330,-82.6670,90.51,1111122 
COMPS,ioos:station:USF.COMPS:ARP:1,2017-10-01T23:18:00Z,28.4330,-82.6670,90.42,1111122 
COMPS,ioos:station:USF.COMPS:ARP:1,2017-10-01T23:24:00Z,28.4330,-82.6670,90.31,1111122 
COMPS,ioos:station:USF.COMPS:ARP:1,2017-10-01T23:30:00Z,28.4330,-82.6670,90.82,1111122 
COMPS,ioos:station:USF.COMPS:ARP:1,2017-10-01T23:36:00Z,28.4330,-82.6670,91.49,1111122 
COMPS,ioos:station:USF.COMPS:ARP:1,2017-10-01T23:42:00Z,28.4330,-82.6670,91.74,1111122 
COMPS,ioos:station:USF.COMPS:ARP:1,2017-10-01T23:48:00Z,28.4330,-82.6670,91.28,1111122 
COMPS,ioos:station:USF.COMPS:ARP:1,2017-10-01T23:54:00Z,28.4330,-82.6670,89.48,1111122 
COMPS,ioos:station:USF.COMPS:ARP:1,2017-10-02T00:00:00Z,28.4330,-82.6670,87.48,1111122 
COMPS,ioos:station:USF.COMPS:ARP:1,2017-10-02T00:06:00Z,28.4330,-82.6670,85.47,1111122 
COMPS,ioos:station:USF.COMPS:ARP:1,2017-10-02T00:12:00Z,28.4330,-82.6670,84.85,1111122 
COMPS,ioos:station:USF.COMPS:ARP:1,2017-10-02T00:18:00Z,28.4330,-82.6670,84.48,1111122 
COMPS,ioos:station:USF.COMPS:ARP:1,2017-10-02T00:24:00Z,28.4330,-82.6670,84.02,1111122 
COMPS,ioos:station:USF.COMPS:ARP:1,2017-10-02T00:30:00Z,28.4330,-82.6670,84.36,1111122 
COMPS,ioos:station:USF.COMPS:ARP:1,2017-10-02T00:36:00Z,28.4330,-82.6670,85.22,1111122 
COMPS,ioos:station:USF.COMPS:ARP:1,2017-10-02T00:42:00Z,28.4330,-82.6670,86.24,1111122 
COMPS,ioos:station:USF.COMPS:ARP:1,2017-10-02T00:48:00Z,28.4330,-82.6670,86.92,1111122 
COMPS,ioos:station:USF.COMPS:ARP:1,2017-10-02T00:54:00Z,28.4330,-82.6670,87.7,1111122 
COMPS,ioos:station:USF.COMPS:ARP:1,2017-10-02T01:00:00Z,28.4330,-82.6670,88.79,1111122 
COMPS,ioos:station:USF.COMPS:ARP:1,2017-10-02T01:06:00Z,28.4330,-82.6670,89.68,1111122 
COMPS,ioos:station:USF.COMPS:ARP:1,2017-10-02T01:12:00Z,28.4330,-82.6670,89.91,1111122 
COMPS,ioos:station:USF.COMPS:ARP:1,2017-10-02T01:18:00Z,28.4330,-82.6670,90.46,1111122 
COMPS,ioos:station:USF.COMPS:ARP:1,2017-10-02T01:24:00Z,28.4330,-82.6670,90.7,1111122 
COMPS,ioos:station:USF.COMPS:ARP:1,2017-10-02T01:30:00Z,28.4330,-82.6670,90.83,1111122 
COMPS,ioos:station:USF.COMPS:ARP:1,2017-10-02T01:36:00Z,28.4330,-82.6670,90.86,1111122 
COMPS,ioos:station:USF.COMPS:ARP:1,2017-10-02T01:42:00Z,28.4330,-82.6670,90.58,1111122 
COMPS,ioos:station:USF.COMPS:ARP:1,2017-10-02T01:48:00Z,28.4330,-82.6670,90.15,1111122 
COMPS,ioos:station:USF.COMPS:ARP:1,2017-10-02T01:54:00Z,28.4330,-82.6670,89.52,1111122 
COMPS,ioos:station:USF.COMPS:ARP:1,2017-10-02T02:00:00Z,28.4330,-82.6670,89.26,1111122 
COMPS,ioos:station:USF.COMPS:ARP:1,2017-10-02T02:06:00Z,28.4330,-82.6670,89.05,1111122 
COMPS,ioos:station:USF.COMPS:ARP:1,2017-10-02T02:12:00Z,28.4330,-82.6670,89.0,1111122 
COMPS,ioos:station:USF.COMPS:ARP:1,2017-10-02T02:18:00Z,28.4330,-82.6670,88.75,1111122 
COMPS,ioos:station:USF.COMPS:ARP:1,2017-10-02T02:24:00Z,28.4330,-82.6670,88.69,1111122 
COMPS,ioos:station:USF.COMPS:ARP:1,2017-10-02T02:30:00Z,28.4330,-82.6670,88.23,1111122 
COMPS,ioos:station:USF.COMPS:ARP:1,2017-10-02T02:36:00Z,28.4330,-82.6670,87.81,1111122 
COMPS,ioos:station:USF.COMPS:ARP:1,2017-10-02T02:42:00Z,28.4330,-82.6670,87.27,1111122 
COMPS,ioos:station:USF.COMPS:ARP:1,2017-10-02T02:48:00Z,28.4330,-82.6670,86.88,1111122 
COMPS,ioos:station:USF.COMPS:ARP:1,2017-10-02T02:54:00Z,28.4330,-82.6670,86.47,1111122 
COMPS,ioos:station:USF.COMPS:ARP:1,2017-10-02T03:00:00Z,28.4330,-82.6670,86.03,1111122 
COMPS,ioos:station:USF.COMPS:ARP:1,2017-10-02T03:06:00Z,28.4330,-82.6670,86.09,1111122 